Regional Weather Roundup
Issued by NWS

Home | Current Version | Previous Version | Text Only | Print | Product List | Glossary On
Versions: 1 2 3 4 5 6 7 8 9 10 11 12 13 14 15 16 17 18 19 20 21 22 23 24 25 26 27
000
ASUS42 KFFC 041403
RWRGA
WEATHER ROUNDUP FOR GEORGIA
NATIONAL WEATHER SERVICE PEACHTREE CITY GA
1000 AM EDT WED MAY 04 2016

NOTE: "FAIR" INDICATES FEW OR NO CLOUDS BELOW 12,000 FEET WITH NO
SIGNIFICANT WEATHER AND/OR OBSTRUCTIONS TO VISIBILITY.

* = USE WITH CAUTION. THE STATIONS MARKED WITH AN ASTERISK MAY NOT
REPORT WEATHER SUCH AS PRECIPITATION, FOG, OR THUNDER AND ARE NOT
QUALITY CONTROLLED BY NWS.

THE REMARK "TC" DENOTES TEMPERATURE READING IN DEGREES CELSIUS.

GAZ001>058-041500-
NORTH GEORGIA

CITY           SKY/WX    TMP DP  RH WIND       PRES   REMARKS
ATLANTA        MOSUNNY   62  46  55 NW16      29.83S
ATHENS         SUNNY     64  46  52 NW9       29.80S
CHAMBLEE       MOSUNNY   61  47  59 NW15      29.82F
PEACHTREE CITY SUNNY     61  47  59 N13       29.84F
ROME           SUNNY     61  47  59 NW9       29.84F
WEST ATLANTA   MOSUNNY   61  46  57 NW9G16    29.83F
GAINESVILLE    SUNNY     59  44  57 NW12      29.82F
CARTERSVILLE   SUNNY     61  49  64 N7        29.84F


CITY           SKY/WX    TMP DP  RH WIND       PRES   REMARKS
DALTON*        SUNNY     59  46  63 NW10      29.85F
LAWRENCEVILLE* MOSUNNY   61  45  55 N12       29.82F
MARIETTA       MOSUNNY   60  47  61 NW14G20   29.83S
KENNESAW*      SUNNY     59  45  58 N8        29.83F
CANTON*        SUNNY     59  37  44 NW12G20   29.83F
BLAIRSVILLE*     N/A    N/A N/A N/A MISG      29.82F
$$

GAZ059>098-102>109-041500-
CENTRAL GEORGIA

CITY           SKY/WX    TMP DP  RH WIND       PRES   REMARKS
AUGUSTA-BUSH   SUNNY     69  51  52 NW12      29.75F
AUGUSTA-DANIEL SUNNY     68  51  54 NW9       29.77F
COLUMBUS       SUNNY     64  49  57 N8        29.84S
MACON          SUNNY     66  51  58 N6        29.82S
ROBINS AFB     SUNNY     66  51  56 NW13      29.81S


CITY           SKY/WX    TMP DP  RH WIND       PRES   REMARKS
LAGRANGE*      MOSUNNY   64  53  67 NW7       29.84F
SYLVANIA*      SUNNY     70  59  68 NW10      29.77S
MILLEDGEVILLE* SUNNY     64  50  59 NW7       29.81S
$$

GAZ099>101-110>166-041500-
SOUTH GEORGIA

CITY           SKY/WX    TMP DP  RH WIND       PRES   REMARKS
SAVANNAH       PTSUNNY   72  58  61 NW12      29.77S
VALDOSTA       MOSUNNY   70  60  70 N10       29.83R
ALMA           SUNNY     71  56  58 NW10G17   29.81R
ST SIMONS      CLOUDY    72  63  73 NW10      29.78R
FT STEWART     PTSUNNY   71  58  62 NW6       29.77R
ALBANY         SUNNY     68  54  60 N3        29.85S
HUNTER AFB     MOSUNNY   72  63  73 NW12      29.75R
MOODY AFB      SUNNY     71  57  63 N12       29.82R
BRUNSWICK      CLOUDY    77  66  69 NW6       29.80R


CITY           SKY/WX    TMP DP  RH WIND       PRES   REMARKS
BAINBRIDGE*    PTSUNNY   70  59  68 N7        29.85S
MOULTRIE*      MOSUNNY   68  55  64 N5        29.83F
VIDALIA*       SUNNY     68  55  64 NW9       29.80S
WAYCROSS*      PTSUNNY   71  61  69 N10       29.81R
DOUGLAS*       MOSUNNY   72  54  53 N8        29.83S
$$




USA.gov is the U.S. government's official web portal to all federal, state and local government web resources and services.